Simultaneous Nadir Overpasses (SNOs) Predictions

Prediction of SNOs over PacNW region [( 10.00, 139.50) to ( 22.70, 165.60)] between AQUA and NPP Satellites:

Table of predicted SNOs over PacNW region for the next 30.0 days since TLE Epoch: 2/28/2015
Index Date (AQUA) Time (AQUA) AQUA Lat,Lon Date (NPP) Time (NPP) NPP Lat,Lon Distance(km) Time Diff (sec)
1 03/03/2015 03:28:58 10.07, 150.37 03/03/2015 03:29:46 9.75, 148.85 169.69 48
2 03/11/2015 02:40:18 12.51, 162.19 03/11/2015 02:39:37 12.23, 160.97 136.50 41
3 03/13/2015 16:22:10 10.00, 140.01 03/13/2015 16:18:40 7.15, 139.17 330.60 210
4 03/19/2015 03:29:03 10.09, 150.38 03/19/2015 03:29:31 9.72, 148.85 172.72 28
5 03/27/2015 02:40:17 13.02, 162.15 03/27/2015 02:39:28 12.72, 160.85 144.84 49




NCC Satellite Simultaneous Nadir Overpasses (SNOs) Prediction Service
